Volver al catálogo

THORAD DELTA 1 DEB

ActivoLEO
NORAD 42617·DEBRIS·🇺🇸 United States

Lanzado Nov 15, 1974 desde Vandenberg Space Force Base

Loading…

Próximos Pases (próximas 24 horas)

TLE

ActualizadoSource: Space-Track

Época: Sep 14, 2026, 07:13 UTC

1 42617U 74089GJ  26257.30133282  .00000023  00000-0  57151-3 0  9999
2 42617 101.4633 286.3944 0181432  15.9922  44.8859 12.19465969570533

Sigue THORAD DELTA 1 DEB en tiempo real con AllMySat

Download on the App Store